Time,TemperatureF,DewpointF,PressureIn,WindDirection,WindDirectionDegrees,WindSpeedMPH,WindSpeedGustMPH,Humidity,HourlyPrecipIn,Conditions,Clouds,dailyrainin,SoftwareType,DateUTC
2013-07-12 00:02:00,66.0,61.0,30.04,NNE,32,1.0,3.0,84,0.00,,,0.00,,2013-07-12 05:02:00,
2013-07-12 00:11:00,65.0,60.0,30.05,North,10,2.0,3.0,85,0.00,,,0.00,,2013-07-12 05:11:00,
2013-07-12 00:22:00,65.0,61.0,30.05,North,10,0.0,4.0,86,0.00,,,0.00,,2013-07-12 05:22:00,
2013-07-12 00:32:00,65.0,61.0,30.05,North,10,0.0,4.0,86,0.00,,,0.00,,2013-07-12 05:32:00,
2013-07-12 00:43:00,64.0,60.0,30.05,North,10,1.0,2.0,87,0.00,,,0.00,,2013-07-12 05:43:00,
2013-07-12 00:53:00,64.0,60.0,30.05,North,10,1.0,2.0,88,0.00,,,0.00,,2013-07-12 05:53:00,
2013-07-12 01:01:00,64.0,60.0,30.05,North,10,1.0,2.0,88,0.00,,,0.00,,2013-07-12 06:01:00,
2013-07-12 01:11:00,64.0,60.0,30.05,North,10,0.0,2.0,87,0.00,,,0.00,,2013-07-12 06:11:00,
2013-07-12 01:22:00,63.0,60.0,30.05,North,10,0.0,2.0,89,0.00,,,0.00,,2013-07-12 06:22:00,
2013-07-12 01:33:00,63.0,60.0,30.05,North,10,0.0,2.0,89,0.00,,,0.00,,2013-07-12 06:33:00,
2013-07-12 01:42:00,63.0,60.0,30.05,North,10,0.0,1.0,90,0.00,,,0.00,,2013-07-12 06:42:00,
2013-07-12 01:52:00,62.0,59.0,30.05,North,10,1.0,2.0,90,0.00,,,0.00,,2013-07-12 06:52:00,
2013-07-12 02:02:00,62.0,59.0,30.05,North,10,1.0,2.0,90,0.00,,,0.00,,2013-07-12 07:02:00,
2013-07-12 02:12:00,62.0,59.0,30.05,North,5,0.0,2.0,91,0.00,,,0.00,,2013-07-12 07:12:00,
2013-07-12 02:22:00,62.0,60.0,30.05,North,5,2.0,5.0,92,0.00,,,0.00,,2013-07-12 07:22:00,
2013-07-12 02:32:00,62.0,60.0,30.05,North,5,2.0,5.0,92,0.00,,,0.00,,2013-07-12 07:32:00,
2013-07-12 02:43:00,62.0,59.0,30.06,North,5,1.0,4.0,91,0.00,,,0.00,,2013-07-12 07:43:00,
2013-07-12 02:52:00,62.0,59.0,30.06,North,5,1.0,4.0,91,0.00,,,0.00,,2013-07-12 07:52:00,
2013-07-12 03:01:00,62.0,59.0,30.06,North,5,1.0,4.0,91,0.00,,,0.00,,2013-07-12 08:01:00,
2013-07-12 03:11:00,62.0,59.0,30.06,North,5,2.0,5.0,91,0.00,,,0.00,,2013-07-12 08:11:00,
2013-07-12 03:21:00,62.0,59.0,30.06,North,5,1.0,5.0,91,0.00,,,0.00,,2013-07-12 08:21:00,
2013-07-12 03:32:00,62.0,59.0,30.06,North,5,1.0,5.0,91,0.00,,,0.00,,2013-07-12 08:32:00,
2013-07-12 03:42:00,61.0,58.0,30.06,North,5,2.0,6.0,90,0.00,,,0.00,,2013-07-12 08:42:00,
2013-07-12 03:53:00,61.0,58.0,30.06,North,5,0.0,2.0,90,0.00,,,0.00,,2013-07-12 08:53:00,
2013-07-12 04:02:00,61.0,58.0,30.06,North,5,0.0,2.0,90,0.00,,,0.00,,2013-07-12 09:02:00,
2013-07-12 04:12:00,61.0,58.0,30.07,North,5,0.0,1.0,91,0.00,,,0.00,,2013-07-12 09:12:00,
2013-07-12 04:22:00,61.0,58.0,30.07,North,5,1.0,2.0,91,0.00,,,0.00,,2013-07-12 09:22:00,
2013-07-12 04:32:00,61.0,58.0,30.07,North,5,1.0,2.0,91,0.00,,,0.00,,2013-07-12 09:32:00,
2013-07-12 04:43:00,61.0,58.0,30.07,North,5,0.0,4.0,91,0.00,,,0.00,,2013-07-12 09:43:00,
2013-07-12 04:52:00,60.0,58.0,30.08,North,5,2.0,3.0,92,0.00,,,0.00,,2013-07-12 09:52:00,
2013-07-12 05:01:00,60.0,58.0,30.08,North,5,2.0,3.0,92,0.00,,,0.00,,2013-07-12 10:01:00,
2013-07-12 05:11:00,60.0,57.0,30.08,North,5,1.0,3.0,91,0.00,,,0.00,,2013-07-12 10:11:00,
2013-07-12 05:22:00,60.0,57.0,30.09,North,5,0.0,2.0,91,0.00,,,0.00,,2013-07-12 10:22:00,
2013-07-12 05:33:00,60.0,57.0,30.09,North,5,0.0,2.0,91,0.00,,,0.00,,2013-07-12 10:33:00,
2013-07-12 05:42:00,60.0,58.0,30.09,NNE,28,0.0,1.0,92,0.00,,,0.00,,2013-07-12 10:42:00,
2013-07-12 06:02:00,59.0,57.0,30.09,NE,34,0.0,2.0,92,0.00,,,0.00,,2013-07-12 11:02:00,
2013-07-12 06:11:00,60.0,58.0,30.09,NE,34,1.0,4.0,92,0.00,,,0.00,,2013-07-12 11:11:00,
2013-07-12 06:32:00,60.0,58.0,30.09,NE,34,3.0,6.0,92,0.00,,,0.00,,2013-07-12 11:32:00,
2013-07-12 06:43:00,62.0,59.0,30.09,North,5,1.0,5.0,90,0.00,,,0.00,,2013-07-12 11:43:00,
2013-07-12 07:02:00,63.0,59.0,30.10,NNE,25,3.0,7.0,88,0.00,,,0.00,,2013-07-12 12:02:00,
2013-07-12 07:11:00,63.0,59.0,30.10,NNE,25,3.0,7.0,88,0.00,,,0.00,,2013-07-12 12:11:00,
2013-07-12 07:22:00,63.0,59.0,30.10,NNE,25,3.0,7.0,88,0.00,,,0.00,,2013-07-12 12:22:00,
2013-07-12 07:32:00,65.0,60.0,30.10,NE,34,4.0,7.0,84,0.00,,,0.00,,2013-07-12 12:32:00,
2013-07-12 07:43:00,66.0,60.0,30.10,East,83,3.0,9.0,82,0.00,,,0.00,,2013-07-12 12:43:00,
2013-07-12 08:01:00,68.0,61.0,30.10,NE,39,3.0,7.0,79,0.00,,,0.00,,2013-07-12 13:01:00,
2013-07-12 08:12:00,69.0,62.0,30.11,ENE,61,5.0,7.0,78,0.00,,,0.00,,2013-07-12 13:12:00,
2013-07-12 08:22:00,69.0,62.0,30.11,ENE,61,5.0,7.0,78,0.00,,,0.00,,2013-07-12 13:22:00,
2013-07-12 08:32:00,70.0,62.0,30.11,NNE,31,4.0,8.0,75,0.00,,,0.00,,2013-07-12 13:32:00,
2013-07-12 08:43:00,71.0,62.0,30.11,NE,38,3.0,8.0,74,0.00,,,0.00,,2013-07-12 13:43:00,
2013-07-12 08:53:00,71.0,62.0,30.11,NE,38,3.0,8.0,74,0.00,,,0.00,,2013-07-12 13:53:00,
2013-07-12 09:02:00,72.0,62.0,30.11,NE,43,5.0,8.0,72,0.00,,,0.00,,2013-07-12 14:02:00,
2013-07-12 09:22:00,73.0,63.0,30.12,NNE,28,5.0,8.0,70,0.00,,,0.00,,2013-07-12 14:22:00,
2013-07-12 09:32:00,74.0,63.0,30.11,NE,37,3.0,8.0,69,0.00,,,0.00,,2013-07-12 14:32:00,
2013-07-12 09:44:00,75.0,63.0,30.11,NE,43,3.0,8.0,67,0.00,,,0.00,,2013-07-12 14:44:00,
2013-07-12 09:53:00,75.0,63.0,30.11,NE,43,3.0,8.0,67,0.00,,,0.00,,2013-07-12 14:53:00,
2013-07-12 10:02:00,76.0,63.0,30.11,NNE,26,5.0,8.0,65,0.00,,,0.00,,2013-07-12 15:02:00,
2013-07-12 10:11:00,76.0,61.0,30.10,East,88,5.0,11.0,60,0.00,,,0.00,,2013-07-12 15:11:00,
2013-07-12 10:22:00,76.0,61.0,30.10,East,88,5.0,11.0,60,0.00,,,0.00,,2013-07-12 15:22:00,
2013-07-12 10:33:00,77.0,63.0,30.11,NNE,29,3.0,11.0,61,0.00,,,0.00,,2013-07-12 15:33:00,
2013-07-12 10:43:00,78.0,62.0,30.11,NNE,24,5.0,8.0,59,0.00,,,0.00,,2013-07-12 15:43:00,
2013-07-12 10:52:00,78.0,62.0,30.11,NNE,24,5.0,8.0,59,0.00,,,0.00,,2013-07-12 15:52:00,
2013-07-12 11:01:00,78.0,62.0,30.11,ESE,103,4.0,8.0,58,0.00,,,0.00,,2013-07-12 16:01:00,
2013-07-12 11:11:00,79.0,62.0,30.10,ESE,119,4.0,8.0,57,0.00,,,0.00,,2013-07-12 16:11:00,
2013-07-12 11:22:00,79.0,62.0,30.10,ESE,119,4.0,8.0,57,0.00,,,0.00,,2013-07-12 16:22:00,
2013-07-12 11:32:00,79.0,61.0,30.10,NNE,20,5.0,10.0,55,0.00,,,0.00,,2013-07-12 16:32:00,
2013-07-12 11:43:00,79.0,62.0,30.10,NNE,32,5.0,9.0,56,0.00,,,0.00,,2013-07-12 16:43:00,
2013-07-12 12:06:00,79.0,62.0,30.10,NE,46,2.0,6.0,57,0.00,,,0.00,,2013-07-12 17:06:00,
2013-07-12 12:14:00,79.0,60.0,30.09,NNE,24,6.0,11.0,53,0.00,,,0.00,,2013-07-12 17:14:00,
2013-07-12 12:24:00,79.0,60.0,30.09,NNE,24,6.0,11.0,53,0.00,,,0.00,,2013-07-12 17:24:00,
2013-07-12 12:37:00,80.0,61.0,30.10,North,5,3.0,9.0,52,0.00,,,0.00,,2013-07-12 17:37:00,
2013-07-12 12:45:00,80.0,62.0,30.09,ENE,57,2.0,9.0,55,0.00,,,0.00,,2013-07-12 17:45:00,
2013-07-12 12:53:00,80.0,62.0,30.09,ENE,57,2.0,9.0,55,0.00,,,0.00,,2013-07-12 17:53:00,
2013-07-12 13:07:00,80.0,62.0,30.09,NE,34,4.0,7.0,55,0.00,,,0.00,,2013-07-12 18:07:00,
2013-07-12 13:14:00,81.0,62.0,30.09,NE,55,5.0,8.0,52,0.00,,,0.00,,2013-07-12 18:14:00,
2013-07-12 13:27:00,81.0,62.0,30.09,NE,55,5.0,8.0,52,0.00,,,0.00,,2013-07-12 18:27:00,
2013-07-12 13:34:00,81.0,63.0,30.08,NE,42,4.0,9.0,55,0.00,,,0.00,,2013-07-12 18:34:00,
2013-07-12 13:47:00,81.0,61.0,30.08,ESE,110,7.0,12.0,51,0.00,,,0.00,,2013-07-12 18:47:00,
2013-07-12 14:05:00,81.0,62.0,30.08,East,93,3.0,9.0,52,0.00,,,0.00,,2013-07-12 19:05:00,
2013-07-12 14:15:00,82.0,64.0,30.07,NNE,29,6.0,10.0,54,0.00,,,0.00,,2013-07-12 19:15:00,
2013-07-12 14:23:00,82.0,64.0,30.07,NNE,29,6.0,10.0,54,0.00,,,0.00,,2013-07-12 19:23:00,
2013-07-12 14:33:00,82.0,61.0,30.08,East,99,1.0,10.0,49,0.00,,,0.00,,2013-07-12 19:33:00,
2013-07-12 14:45:00,82.0,62.0,30.07,ENE,57,5.0,8.0,51,0.00,,,0.00,,2013-07-12 19:45:00,
2013-07-12 14:56:00,82.0,62.0,30.07,ENE,57,5.0,8.0,51,0.00,,,0.00,,2013-07-12 19:56:00,
2013-07-12 15:03:00,82.0,62.0,30.07,NNE,32,2.0,6.0,51,0.00,,,0.00,,2013-07-12 20:03:00,
2013-07-12 15:13:00,82.0,64.0,30.07,North,5,6.0,12.0,55,0.00,,,0.00,,2013-07-12 20:13:00,
2013-07-12 15:24:00,82.0,64.0,30.07,North,5,6.0,12.0,55,0.00,,,0.00,,2013-07-12 20:24:00,
2013-07-12 15:34:00,82.0,62.0,30.07,North,355,7.0,10.0,51,0.00,,,0.00,,2013-07-12 20:34:00,
2013-07-12 15:44:00,82.0,60.0,30.07,NNE,24,6.0,10.0,47,0.00,,,0.00,,2013-07-12 20:44:00,
2013-07-12 15:54:00,82.0,60.0,30.07,NNE,24,6.0,10.0,47,0.00,,,0.00,,2013-07-12 20:54:00,
2013-07-12 16:03:00,82.0,61.0,30.06,NNE,24,4.0,10.0,49,0.00,,,0.00,,2013-07-12 21:03:00,
2013-07-12 16:14:00,82.0,64.0,30.05,North,360,8.0,11.0,54,0.00,,,0.00,,2013-07-12 21:14:00,
2013-07-12 16:25:00,82.0,64.0,30.05,North,360,8.0,11.0,54,0.00,,,0.00,,2013-07-12 21:25:00,
2013-07-12 16:35:00,82.0,61.0,30.05,North,355,5.0,10.0,49,0.00,,,0.00,,2013-07-12 21:35:00,
2013-07-12 16:46:00,83.0,63.0,30.05,NNE,26,4.0,9.0,51,0.00,,,0.00,,2013-07-12 21:46:00,
2013-07-12 16:55:00,83.0,63.0,30.05,NNE,26,4.0,9.0,51,0.00,,,0.00,,2013-07-12 21:55:00,
2013-07-12 17:04:00,83.0,61.0,30.05,NNE,26,7.0,10.0,47,0.00,,,0.00,,2013-07-12 22:04:00,
2013-07-12 17:16:00,83.0,62.0,30.05,North,355,3.0,9.0,49,0.00,,,0.00,,2013-07-12 22:16:00,
2013-07-12 17:24:00,83.0,62.0,30.05,North,355,3.0,9.0,49,0.00,,,0.00,,2013-07-12 22:24:00,
2013-07-12 17:33:00,82.0,62.0,30.04,North,360,5.0,9.0,51,0.00,,,0.00,,2013-07-12 22:33:00,
2013-07-12 17:54:00,82.0,62.0,30.04,North,355,7.0,9.0,51,0.00,,,0.00,,2013-07-12 22:54:00,
2013-07-12 18:04:00,82.0,61.0,30.03,NNE,13,8.0,12.0,50,0.00,,,0.00,,2013-07-12 23:04:00,
2013-07-12 18:13:00,82.0,62.0,30.03,NE,40,6.0,9.0,51,0.00,,,0.00,,2013-07-12 23:13:00,
2013-07-12 18:25:00,82.0,62.0,30.03,NE,40,6.0,9.0,51,0.00,,,0.00,,2013-07-12 23:25:00,
2013-07-12 18:35:00,82.0,63.0,30.03,North,11,4.0,8.0,52,0.00,,,0.00,,2013-07-12 23:35:00,
2013-07-12 18:43:00,81.0,62.0,30.03,North,11,6.0,10.0,52,0.00,,,0.00,,2013-07-12 23:43:00,
2013-07-12 18:54:00,81.0,62.0,30.03,North,11,6.0,10.0,52,0.00,,,0.00,,2013-07-12 23:54:00,
2013-07-12 19:06:00,81.0,62.0,30.03,North,5,5.0,9.0,53,0.00,,,0.00,,2013-07-13 00:06:00,
2013-07-12 19:16:00,80.0,62.0,30.03,NNE,15,5.0,7.0,54,0.00,,,0.00,,2013-07-13 00:16:00,
2013-07-12 19:25:00,80.0,62.0,30.03,NNE,15,5.0,7.0,54,0.00,,,0.00,,2013-07-13 00:25:00,
2013-07-12 19:33:00,80.0,63.0,30.03,North,9,3.0,7.0,57,0.00,,,0.00,,2013-07-13 00:33:00,
2013-07-12 19:45:00,80.0,63.0,30.03,North,9,3.0,7.0,57,0.00,,,0.00,,2013-07-13 00:45:00,
2013-07-12 19:54:00,79.0,64.0,30.03,NNE,13,3.0,5.0,60,0.00,,,0.00,,2013-07-13 00:54:00,
2013-07-12 20:13:00,77.0,63.0,30.03,NNE,23,2.0,6.0,61,0.00,,,0.00,,2013-07-13 01:13:00,
2013-07-12 20:24:00,76.0,63.0,30.03,NNE,19,3.0,7.0,64,0.00,,,0.00,,2013-07-13 01:24:00,
2013-07-12 20:37:00,76.0,63.0,30.03,NNE,19,3.0,7.0,64,0.00,,,0.00,,2013-07-13 01:37:00,
2013-07-12 20:47:00,75.0,64.0,30.03,NNE,19,0.0,2.0,68,0.00,,,0.00,,2013-07-13 01:47:00,
2013-07-12 20:55:00,75.0,64.0,30.03,NNE,19,0.0,2.0,68,0.00,,,0.00,,2013-07-13 01:55:00,
2013-07-12 21:05:00,73.0,63.0,30.04,North,5,2.0,5.0,72,0.00,,,0.00,,2013-07-13 02:05:00,
2013-07-12 21:14:00,73.0,63.0,30.04,North,5,2.0,5.0,72,0.00,,,0.00,,2013-07-13 02:14:00,
2013-07-12 21:36:00,71.0,64.0,30.05,North,5,0.0,0.0,79,0.00,,,0.00,,2013-07-13 02:36:00,
2013-07-12 21:46:00,70.0,63.0,30.05,North,5,0.0,5.0,78,0.00,,,0.00,,2013-07-13 02:46:00,
2013-07-12 21:55:00,70.0,63.0,30.05,North,5,0.0,5.0,78,0.00,,,0.00,,2013-07-13 02:55:00,
2013-07-12 22:05:00,70.0,63.0,30.06,North,5,1.0,4.0,79,0.00,,,0.00,,2013-07-13 03:05:00,
2013-07-12 22:13:00,69.0,63.0,30.06,North,5,0.0,4.0,80,0.00,,,0.00,,2013-07-13 03:13:00,
2013-07-12 22:27:00,69.0,63.0,30.06,North,5,0.0,4.0,80,0.00,,,0.00,,2013-07-13 03:27:00,
2013-07-12 22:37:00,68.0,63.0,30.06,North,5,0.0,0.0,84,0.00,,,0.00,,2013-07-13 03:37:00,
2013-07-12 22:44:00,67.0,62.0,30.06,North,5,0.0,0.0,85,0.00,,,0.00,,2013-07-13 03:44:00,
2013-07-12 22:55:00,67.0,62.0,30.06,North,5,0.0,0.0,85,0.00,,,0.00,,2013-07-13 03:55:00,
2013-07-12 23:01:00,67.0,63.0,30.06,North,5,0.0,0.0,86,0.00,,,0.00,,2013-07-13 04:01:00,
2013-07-12 23:12:00,67.0,62.0,30.06,North,5,0.0,0.0,84,0.00,,,0.00,,2013-07-13 04:12:00,
2013-07-12 23:32:00,67.0,62.0,30.07,North,5,0.0,1.0,84,0.00,,,0.00,,2013-07-13 04:32:00,
2013-07-12 23:43:00,67.0,62.0,30.07,North,5,1.0,2.0,85,0.00,,,0.00,,2013-07-13 04:43:00,
2013-07-12 23:52:00,67.0,62.0,30.07,North,5,1.0,2.0,85,0.00,,,0.00,,2013-07-13 04:52:00,